SCP
0 0 0 0 0 0 0 0 0 0 0 0 0 0 0 0 0 0 0 0 0 0 0 0 0 0 0 0 0 0 0 0 0 0 0 0 0 0
0 0 0 0 0 0 0 0 0 0 0 0 0 0 0 0 0 0 0 0 0 0 0 0 0 0 0 0 0 0 0 0 0 0 0 0 0 0
0 0 0 0 0 0 0 0 0 0 0 0 0 0 0 0 0 0 0 0 0 0 0 0 0 0 0 0 0 0 0 0 0 0 0 0 0 0
0 0 0 0 0 0 0 0 0 0 0 0 0 0 0 0 0 0 0 0 0 0 0 0 0 0 0 0 0 0 0 0 0 0 0 0 0 0
0 0 0 0 0 0 0 0 0 0 0 0 0 0 0 0 0 0 0 0 0 0 0 0 0 0 0 0 0 0 0 0 0 0 0 0 0 0
0 0 0 0 0 0 0 0 0 0 0 0 0 0 0 0 0 0 0 0 0 0 0 0 0 0 0 0 0 0 0 0 0 0 0 0 0 0
0 0 0 0 0 0 0 0 0 0 0 0 0 0 0 0 0 0 0 0 0 0 0 0 0 0 0 0 0 0 0 0 0 0 0 0 0 0
0 0 0 0 0 0 0 0 0 0 0 0 0 0 0 0 0 0 0 0 0 0 0 0 0 0 0 0 0 0 0 0 0 0 0 0 0 0
0 0 0 0 0 0 0 0 0 0 0 0 0 0 0 0 0 0 0 0 0 0 0 0 0 0 0 0 0 0 0 0 0 0 0 0 0 0
0 0 0 0 0 0 0 0 0 0 0 0 0 0 0 0 0 0 0 0 0 0 0 0 0 0 0 0 0 0 0 0 0 0 0 0 0 0
0 0 0 0 0 0 0 0 0 0 0 0 0 0 0 0 0 0 0 0 0 0 0 0 0 0 0 0 0 0 0 0 0 0 0 0 0 0
0 0 0 0 0 0 0 0 0 0 0 0 0 0 0 0 0 0 0 0 0 0 0 0 0 0 0 0 0 0 0 0 0 0 0 0 0 0
0 0 0 0 0 0 0 0 0 0 0 0 0 0 0 0 0 0 0 0 0 0 0 0 0 0 0 0 0 0 0 0 0 0 0 0 0 0
0 0 0 0 0 0 0 0 0 0 0 0 0 0 0 0 0 0 0 0 0 0 0 0 0 0 0 0 0 0 0 0 0 0 0 0 0 0
0 0 0 0 0 0 0 0 0 0 0 0 0 0 0 0 0 0 0 0 0 0 0 0 0 0 0 0 0 0 0 0 0 0 0 0 0 0
0 0 0 0 0 0 0 0 0 0 0 0 0 0 0 0 0 0 0 0 0 0 0 0 0 0 0 0 0 0 0 0 0 0 0 0 0 0
0 0 0 0 0 0 0 0 0 0 0 0 0 0 0 0 0 0 0 0 0 0 0 0 0 0 0 0 0 0 0 0 0 0 0 0 0 0
0 0 0 0 0 0 0 0 0 0 0 0 0 0 0 0 0 0 0 0 0 0 0 0 0 0 0 0 0 0 0 0 0 0 0 0 0 0
0 0 0 0 0 0 0 0 0 0 0 0 0 0 0 0 0 0 0 0 0 0 0 0 0 0 0 0 0 0 0 0 0 0 0 0 0 0
0 0 0 0 0 0 0 0 0 0 0 0 0 0 0 0 0 0 0 0 0 0 0 0 0 0 0 0 0 0 0 0 0 0 0 0 0 0
0 0 0 0 0 0 0 0 0 0 0 0 0 0 0 0 0 0 0 0 0 0 0 0 0 0 0 0 0 0 0 0 0 0 0 0 0 0
0 0 0 0 0 0 0 0 0 0 0 0 0 0 0 0 0 0 0 0 0 0 0 0 0 0 0 0 0 0 0 0 0 0 0 0 0 0
0 0 0 0 0 0 0 0 0 0 0 0 0 0 0 0 0 0 0 0 0 0 0 0 0 0 0 0 0 0 0 0 0 0 0 0 0 0
Wind_Speed
2 2 2 2 1 1 1 2 2 2 3 3 2 2 2 2 4 2 3 7 8 9 9 9 9 9 10 10 10 10 10 11 11 11 11 11 11 11
2 2 2 2 2 2 2 2 2 3 3 3 3 2 2 3 5 3 4 7 8 9 9 9 8 9 9 9 9 10 10 11 11 11 11 12 12 12
2 2 3 3 2 2 2 2 3 3 4 4 2 2 2 3 4 3 3 3 4 8 9 9 8 9 9 9 9 10 10 10 11 11 11 12 13 13
3 3 4 3 3 3 3 3 3 4 4 5 3 2 3 3 3 3 3 3 3 8 9 8 8 9 9 9 9 9 10 10 10 11 11 12 12 13
4 4 4 3 4 3 3 3 3 3 3 4 4 2 3 2 3 3 3 3 4 5 7 7 8 9 9 9 9 9 10 10 10 10 10 11 12 13
4 4 4 4 4 4 4 4 3 3 3 3 4 3 3 3 2 3 3 3 3 3 4 6 7 9 9 8 8 9 9 10 10 10 10 11 11 12
4 4 4 5 7 5 4 4 4 3 3 3 4 3 3 2 3 2 3 4 3 2 3 3 3 3 4 6 8 9 9 9 9 10 11 11 11 12
4 4 4 5 6 8 9 7 6 5 4 4 4 4 5 4 3 3 2 2 3 2 2 4 2 3 3 3 7 9 8 9 10 10 11 11 11 12
4 4 3 4 5 3 6 7 7 10 9 5 6 6 5 4 3 3 3 3 4 3 1 4 2 3 3 4 8 8 8 8 9 10 11 11 11 12
4 5 4 4 4 4 3 4 4 5 6 5 6 6 6 5 5 4 4 4 3 2 2 3 2 3 3 3 6 6 7 8 9 10 11 11 11 12
4 5 5 5 8 8 4 4 5 5 7 9 9 8 9 9 5 2 2 2 4 2 2 2 2 3 3 2 3 6 7 9 9 10 11 12 12 11
3 4 7 7 9 9 5 4 6 6 4 4 5 6 5 6 7 4 4 3 3 3 2 2 1 1 4 2 2 2 4 7 10 10 11 12 12 6
3 3 4 9 10 10 8 5 8 6 3 3 4 3 3 3 3 3 3 4 4 4 3 2 2 2 2 3 3 2 2 3 4 6 9 11 11 8
4 4 4 9 10 10 7 7 9 7 2 2 3 3 3 3 3 3 4 4 5 6 4 4 3 3 2 3 4 3 3 3 3 4 4 8 9 12
4 7 8 9 8 6 7 9 6 3 2 3 4 4 3 3 3 3 3 3 4 4 4 4 4 3 4 4 4 4 4 4 3 3 4 4 5 5
3 5 8 8 6 6 6 5 3 3 3 4 4 3 2 2 3 3 3 2 3 3 3 4 5 5 4 5 5 6 4 4 4 4 5 5 5 5
3 2 2 2 3 3 3 3 3 3 4 3 4 4 3 3 3 3 3 3 3 3 2 2 3 3 5 5 5 6 5 5 5 5 5 6 6 5
4 3 4 4 4 4 4 4 4 4 4 4 4 4 4 4 4 3 3 3 4 4 3 2 1 1 2 4 7 6 5 5 4 4 4 5 7 6
5 4 5 5 5 4 4 4 4 4 4 4 4 4 4 4 4 4 4 4 4 4 3 2 2 2 3 4 4 6 4 4 4 4 4 5 7 8
4 5 5 5 5 5 5 5 4 4 4 4 4 4 4 4 4 4 4 4 4 3 3 2 3 4 4 4 3 3 5 5 4 5 5 5 6 9
5 5 5 5 5 5 5 4 5 5 5 4 4 4 4 4 4 4 4 6 4 3 4 4 4 5 2 1 3 4 4 6 7 5 4 5 6 5
5 5 5 5 5 4 4 4 5 5 5 4 4 4 4 4 5 5 4 4 3 3 3 2 1 1 1 3 4 5 5 5 7 10 10 8 4 4
5 5 5 5 5 4 4 5 5 5 5 4 4 4 4 4 4 4 4 3 3 3 2 2 1 1 2 3 4 4 6 6 4 5 5 8 11 13
Wind_Direction
216 212 210 215 206 203 190 180 192 252 271 268 274 277 285 278 292 280 282 302 314 317 317 320 322 321 322 323 321 324 324 323 323 322 321 322 321 320
221 220 228 220 212 203 200 206 201 208 251 262 257 275 285 291 294 279 274 299 308 312 312 311 313 319 320 321 320 320 318 317 320 321 322 324 323 321
241 231 239 229 218 216 207 207 210 203 244 269 261 273 268 276 294 290 278 278 289 305 307 306 311 315 316 317 315 315 316 317 318 318 320 321 322 321
237 236 245 234 229 224 214 216 216 211 224 260 272 270 264 265 273 283 292 291 283 299 301 303 309 311 312 314 314 314 317 317 318 318 317 319 320 321
226 228 238 232 241 236 227 226 225 226 219 241 266 263 269 272 286 287 287 291 297 300 300 304 309 309 311 313 313 315 315 316 318 318 319 320 320 321
229 228 231 227 237 238 236 232 228 229 228 241 260 267 267 271 269 285 299 300 298 305 306 306 307 310 308 310 315 316 317 318 318 319 320 320 319 318
240 236 236 236 240 242 240 232 224 228 231 242 258 269 269 274 269 261 283 300 290 280 301 300 302 297 300 304 310 309 310 312 315 319 319 318 317 315
240 246 249 249 254 262 263 256 237 231 234 237 250 255 263 257 256 259 271 297 297 287 301 292 279 277 276 271 295 304 306 312 316 319 319 318 318 317
231 240 253 253 258 251 268 273 268 262 249 235 240 246 252 244 243 256 248 246 253 262 278 279 271 275 275 285 298 303 307 314 318 319 320 320 319 317
229 230 236 247 246 249 251 264 266 267 266 249 237 243 241 237 225 234 243 256 258 250 207 266 282 277 289 284 292 310 321 323 323 322 323 321 319 318
237 232 233 239 255 262 254 258 270 271 271 264 259 262 265 262 247 225 238 261 275 253 200 239 277 296 292 276 280 300 312 319 320 322 324 322 319 319
243 240 245 250 259 264 249 242 260 268 264 275 273 275 273 270 263 229 215 236 259 266 212 213 252 310 305 287 276 290 303 307 313 318 321 320 319 318
239 240 242 258 265 267 264 244 256 268 254 253 261 264 263 255 256 240 219 219 232 243 213 190 214 214 245 289 290 267 270 289 302 306 313 316 316 315
236 237 243 260 267 269 267 261 270 275 249 248 254 257 255 252 248 241 235 234 234 238 222 196 208 212 237 270 278 284 283 276 279 289 296 308 311 313
239 251 259 265 270 269 267 273 275 255 239 252 259 258 248 246 246 249 246 240 246 247 233 211 214 221 227 249 266 276 294 287 269 276 292 296 295 300
253 260 265 268 269 269 272 270 252 238 245 253 260 259 250 245 247 243 246 240 249 255 237 224 221 218 236 246 255 268 266 273 288 292 295 292 286 280
250 248 249 256 252 255 255 251 245 250 253 248 252 257 253 251 251 240 235 236 238 251 254 238 233 233 234 238 254 257 263 268 272 289 298 298 290 280
258 241 244 243 244 248 253 255 248 244 245 246 251 252 251 252 255 246 237 233 241 247 247 242 250 301 292 264 234 250 259 266 276 282 281 288 291 288
247 241 244 243 244 243 245 248 250 244 238 238 245 248 248 250 249 246 239 237 241 245 243 229 213 218 266 282 273 228 237 272 283 284 275 269 280 289
236 242 246 245 242 243 244 246 249 246 239 238 239 243 244 247 247 242 236 235 239 244 246 229 219 219 234 253 265 269 246 253 267 277 282 283 278 283
239 243 247 248 244 242 242 241 242 243 241 237 238 239 239 243 246 241 237 238 237 237 243 245 239 240 235 234 269 274 269 261 261 263 274 290 294 296
241 243 244 244 243 242 241 241 242 242 239 240 240 239 239 240 242 237 231 232 234 234 242 248 224 210 201 230 261 276 287 294 289 282 268 256 262 278
240 242 243 241 240 240 240 240 241 243 238 239 238 236 236 241 238 230 225 226 228 225 228 244 234 221 235 241 256 272 282 294 298 303 291 288 284 278